Regional Weather Roundup
Issued by NWS Huntsville, AL

Home | Current Version | Previous Version | Text Only | Print | Product List | Glossary On
Versions: 1 2 3 4 5 6 7 8 9 10 11 12 13 14 15 16 17 18 19 20 21 22 23 24 25 26 27 28 29 30 31 32 33 34 35 36 37 38 39 40 41 42 43 44 45 46 47 48 49 50
000
ASUS44 KHUN 282010
RWRHUN

WEATHER ROUNDUP FOR THE TENNESSEE VALLEY
NATIONAL WEATHER SERVICE HUNTSVILLE AL
300 PM CDT THU APR 28 2016

ALZ001>004-282100-
NORTHWEST ALABAMA

CITY           SKY/WX    TMP DP  RH WIND       PRES   REMARKS
COURTLAND HCN    N/A     82 N/A N/A SW8         N/A
RUSSELLVILLE     N/A     82 N/A N/A MISG        N/A
SHOALS AIRPORT MOSUNNY   86  57  37 MISG      29.93S
SHOALS TVA RES   N/A     82 N/A N/A MISG        N/A
$$

ALZ005>007-016-282100-
NORTH CENTRAL ALABAMA

CITY           SKY/WX    TMP DP  RH WIND       PRES   REMARKS
CULLMAN AG STN   N/A     81 N/A N/A W7          N/A
DECATUR AP     MOSUNNY   84  57  39 W10       29.92F
HUNTSVILLE AP  MOSUNNY   86  57  37 SW13      29.92F
HUN NWS/UAH      N/A     84  55  36 SW9         N/A
MERIDIANVILLE  MOSUNNY   81  50  34 SW8G22    29.93S
REDSTONE ARSN  MOSUNNY   83  59  43 SW8       29.92F
VINEMONT AP    FAIR      83  59  44 SW10      29.96F
$$

ALZ008>010-282100-
NORTHEAST ALABAMA

CITY           SKY/WX    TMP DP  RH WIND       PRES   REMARKS
ALBERTVILLE    SUNNY     82  64  54 W5        29.94F
FORT PAYNE     SUNNY     82  52  34 SW8G17    29.93F
SCOTTSBORO AP  SUNNY     82  61  47 SW10G18   29.93F
SCOTTSBORO HCN   N/A     82 N/A N/A MISG        N/A
VALLEY HEAD      N/A     81 N/A N/A MISG        N/A
$$

TNZ076-096-097-282100-
SOUTHEASTERN MIDDLE TENNESSEE

CITY           SKY/WX    TMP DP  RH WIND       PRES   REMARKS
TULLAHOMA      MOSUNNY   81  59  47 SW16      29.93F
WINCHESTER     MOSUNNY   82  57  42 VRB7      29.93S
$$

...SURROUNDING SITES...

CITY           SKY/WX    TMP DP  RH WIND       PRES   REMARKS
ATLANTA        MOSUNNY   84  60  44 W10       29.94F
ANNISTON       SUNNY     84  57  39 SW10      29.94F
BIRMINGHAM     MOSUNNY   83  57  41 S3        29.96F
CHATTANOOGA    MOSUNNY   85  53  33 SW13G20   29.90F
DALTON         MOSUNNY   81  59  47 CALM      29.92F
GADSDEN        SUNNY     84  61  45 NW8       29.93F
GOLDEN TRNGL   MOSUNNY   84  61  45 S5        29.91F
HALEYVILLE     FAIR      83  59  44 SW8       29.96F
JACKSON TN     SUNNY     81  53  37 W8        29.93S
MEMPHIS        MOSUNNY   83  55  38 W7        29.94S
NASHVILLE      PTSUNNY   83  56  39 VRB7      29.90S
OXFORD MS      FAIR      82  57  42 NW5       29.95F
ROME           SUNNY     85  52  32 SW9       29.91F
SAVANNAH       MOSUNNY   82  61  47 W7G14     29.92S
TUPELO         SUNNY     83  61  47 CALM      29.92F
TUSCALOOSA     SUNNY     84  57  39 CALM      29.93F
$$

...GULF COAST WEATHER...

CITY           SKY/WX    TMP DP  RH WIND       PRES   REMARKS
GULFPORT       MOSUNNY   77  70  79 S13       29.93F
PASCAGOULA     CLOUDY    77  65  66 S8        29.95R
MOBILE         CLOUDY    74  69  85 CALM      29.97R
GULF SHORES    CLOUDY    74  63  69 W7        29.94R
PENSACOLA      LGT RAIN  78  60  53 W10G25    29.95R
DESTIN         CLOUDY    80  68  66 CALM      29.96
PANAMA CITY    CLOUDY    79  73  83 S9        29.98F
APPALACHICOLA  CLOUDY    80  76  87 S12       29.98F
$$




USA.gov is the U.S. government's official web portal to all federal, state and local government web resources and services.